Wind_Speed
35 36 38 38 39 40 41 42 42 42 43 43 43 42 42 42 41 41 40 39 36 35 34 31 31 31 28 27 26 26 25 24 24 23 23 23 23 23 23 23 22 22 21
34 35 35 36 37 37 37 38 40 40 41 42 43 42 42 42 41 41 41 41 39 38 37 34 33 32 30 29 28 27 26 26 25 25 24 24 24 24 24 24 24 24 24
30 30 31 33 34 34 34 34 35 36 37 39 40 41 41 41 41 41 41 41 40 40 40 37 35 34 32 31 30 29 28 27 27 27 25 25 24 25 25 26 26 26 26
26 26 27 28 29 29 29 30 31 32 33 34 35 36 38 39 40 40 40 40 39 40 39 39 39 38 35 33 32 31 30 30 29 28 27 28 27 26 26 27 27 27 27
23 23 23 24 24 24 24 25 27 28 29 30 31 32 33 34 36 37 38 38 38 39 38 38 37 37 37 36 35 33 32 31 30 29 28 29 30 29 29 29 30 30 29
20 21 21 20 20 20 20 21 21 21 22 24 26 27 29 30 31 33 35 36 37 37 38 38 38 37 37 37 35 34 32 33 32 32 31 30 30 30 32 32 31 31 31
19 19 18 17 18 18 17 16 16 16 17 17 19 21 23 25 27 29 30 33 34 35 36 37 37 36 36 35 34 34 34 34 34 33 33 32 32 31 31 32 31 31 31
18 18 16 16 16 15 14 12 11 11 11 11 13 15 17 20 22 24 26 28 30 32 33 34 35 36 37 35 34 34 33 32 32 33 32 31 32 33 33 32 33 33 33
17 16 16 15 15 14 12 12 12 10 9 9 9 11 13 15 16 19 21 22 24 26 28 31 32 34 34 33 33 32 32 31 31 31 31 31 32 34 34 33 33 33 33
17 16 17 16 15 14 13 13 12 11 10 8 6 7 7 9 11 12 15 17 19 21 23 26 28 29 30 30 30 31 31 31 31 31 31 31 31 32 32 32 32 32 32
18 18 18 17 15 14 14 14 13 12 11 10 7 5 5 5 6 7 10 12 15 17 19 21 23 24 25 26 28 28 28 29 29 30 30 30 30 32 32 32 31 32 32
19 20 20 19 18 16 16 15 15 14 13 12 10 8 6 4 3 3 5 7 10 12 14 16 18 20 21 22 24 25 26 28 29 29 30 30 29 30 30 30 30 31 31
19 20 21 21 20 19 17 17 16 15 14 13 13 12 9 7 4 3 2 3 4 7 8 10 12 15 17 19 20 21 23 24 25 26 27 28 29 29 29 30 31 31 30
20 20 21 21 21 20 20 19 18 18 17 16 15 14 13 11 9 6 4 3 2 3 4 5 8 11 13 16 17 18 20 21 22 23 24 25 26 26 27 28 28 29 29
21 21 22 22 21 21 21 21 20 19 19 18 17 16 15 14 12 10 8 5 3 2 3 5 6 8 10 12 13 15 16 17 19 20 20 22 22 23 24 25 25 25 25
21 21 22 22 22 22 22 22 21 20 19 18 18 17 16 15 14 12 10 8 7 5 4 4 4 4 6 8 10 11 12 13 14 15 16 16 18 19 20 20 20 21 21
20 21 22 22 22 22 22 21 21 21 20 19 18 17 17 16 15 14 13 12 10 9 8 6 5 4 4 4 6 7 9 10 12 12 12 13 13 14 15 16 17 17 16
20 20 21 21 21 22 22 21 21 20 20 20 19 18 17 17 16 15 14 14 12 11 10 8 7 5 3 3 3 4 5 7 8 9 9 10 11 11 11 12 13 14 14
18 19 20 20 21 21 21 21 21 21 21 20 20 19 18 17 17 16 15 15 14 13 11 10 9 8 5 3 2 2 4 5 6 7 8 8 9 10 10 11 12 13 13
17 17 18 19 20 20 21 21 21 21 21 21 20 20 19 19 18 17 17 16 15 14 13 12 11 10 8 5 3 1 1 3 4 5 6 7 7 8 8 9 10 11 12
16 17 17 18 19 19 20 20 21 22 22 21 21 20 20 19 19 18 17 17 16 15 14 13 13 12 10 8 6 4 2 1 2 3 4 5 6 7 7 8 8 10 10
15 16 17 17 18 18 19 19 20 21 21 21 21 21 20 20 20 19 18 17 17 16 15 15 14 13 12 11 9 7 5 3 2 1 1 2 4 4 5 6 7 8 9
14 15 16 16 17 17 18 18 19 20 20 20 21 21 21 20 20 20 19 18 17 17 16 16 15 14 13 12 11 10 7 5 3 2 1 1 2 3 4 4 5 5 6
12 13 14 15 16 16 17 17 18 19 19 20 20 20 20 20 20 20 19 19 18 18 17 17 16 15 15 14 13 12 10 8 6 5 3 2 1 2 3 4 4 4 4
11 12 13 13 14 15 15 16 17 18 18 19 19 20 20 20 20 20 19 19 19 18 18 17 17 16 15 15 14 13 12 11 9 8 7 5 4 3 3 3 3 3 3
10 11 11 12 13 14 14 14 15 16 17 18 18 18 19 19 19 19 19 18 18 18 18 18 17 17 16 16 15 14 13 12 11 10 9 7 6 5 4 4 3 3 3
Wind_Direction
284 283 282 280 279 277 274 270 268 266 264 261 260 258 257 257 257 256 255 253 253 252 252 250 250 249 249 251 249 250 251 251 250 250 250 250 249 247 246 247 248 249 249
288 287 285 284 283 281 277 273 270 268 266 263 262 261 260 258 257 256 255 253 254 253 252 251 251 251 251 251 250 248 250 251 249 248 249 248 247 248 248 246 248 250 251
294 293 291 289 286 283 280 276 273 270 267 265 263 260 258 257 256 256 255 254 255 255 252 252 253 252 253 253 251 247 250 251 250 249 248 247 246 250 249 248 250 251 251
303 301 299 296 292 288 283 277 274 272 269 266 264 260 257 257 257 256 255 254 254 253 251 251 252 253 252 251 251 250 253 253 250 248 248 247 246 248 249 249 251 251 252
311 311 310 307 303 297 291 283 278 275 272 269 264 261 258 256 254 254 253 252 252 251 250 250 250 251 252 251 251 252 253 250 249 247 247 248 247 248 249 250 251 252 252
322 323 321 317 316 310 301 293 286 282 278 272 266 262 259 255 253 252 251 250 250 249 249 250 250 249 249 249 248 248 248 247 248 248 248 248 247 249 249 249 249 250 252
332 334 332 327 326 322 315 307 299 292 285 276 267 261 257 254 252 251 250 249 248 247 246 247 247 247 248 247 247 247 247 248 249 248 249 249 248 248 249 249 249 250 252
345 344 344 342 341 340 336 331 322 313 303 288 273 264 259 256 254 251 250 248 247 247 246 246 246 247 248 248 249 247 246 248 248 247 248 249 248 247 247 248 249 249 251
355 356 356 353 351 353 356 354 355 348 332 310 289 273 263 257 253 251 249 248 247 246 246 245 245 246 246 246 245 245 246 247 248 247 248 250 250 248 248 248 249 250 252
8 7 6 6 7 11 11 8 7 5 358 341 316 300 280 262 256 255 253 249 245 244 243 242 241 242 245 246 245 247 246 247 248 247 249 249 249 248 248 248 248 250 251
21 20 19 18 20 22 22 19 17 13 13 11 359 338 319 298 275 265 261 255 248 244 241 241 243 246 247 245 245 245 243 243 244 245 247 248 248 247 246 246 247 249 252
29 28 27 27 30 32 31 28 28 30 31 32 28 24 12 354 315 291 274 263 253 247 246 244 243 244 244 245 247 247 245 246 246 247 247 247 246 247 247 246 248 250 250
33 33 32 33 35 36 37 36 36 37 36 36 36 35 35 34 27 12 341 302 271 255 249 249 246 246 247 248 249 249 248 248 248 248 247 246 245 245 246 248 250 248 248
35 34 33 35 37 38 40 41 40 41 41 42 44 44 43 41 38 37 29 4 319 280 262 253 254 252 250 250 249 250 250 249 247 247 246 245 244 244 245 246 247 246 247
39 38 39 40 41 42 42 42 43 43 42 44 44 44 44 43 44 43 40 34 18 338 294 280 267 259 251 248 247 250 248 245 246 246 243 239 238 240 240 242 243 243 243
40 40 41 43 44 44 43 42 42 42 42 42 42 42 41 39 40 40 39 37 29 16 351 320 293 279 260 251 249 249 245 241 240 239 237 237 235 234 234 238 238 239 238
40 41 43 43 43 43 42 41 41 40 40 39 38 37 37 36 35 34 35 33 28 21 13 5 346 317 297 275 255 250 244 235 231 232 236 237 233 230 233 234 234 234 233
41 42 42 41 41 41 41 41 40 39 38 37 37 35 34 34 34 33 30 27 24 23 19 15 8 357 348 327 288 262 251 238 228 230 232 233 233 229 226 227 230 230 231
39 40 40 40 41 41 40 39 39 38 37 37 36 35 35 34 33 32 29 26 25 25 24 22 17 14 9 0 337 276 263 255 241 242 240 234 229 228 225 223 223 224 223
38 37 38 39 39 39 39 39 38 37 37 36 36 35 35 34 33 31 29 28 28 28 27 27 25 23 23 24 21 347 288 255 247 243 238 232 226 224 223 222 224 224 226
34 34 35 36 37 38 39 39 38 38 38 37 36 35 34 33 32 31 31 30 30 31 31 30 30 32 34 34 31 26 9 312 265 249 239 233 229 222 223 218 219 222 226
31 32 33 34 35 36 37 36 36 36 36 36 35 35 34 33 33 32 32 32 33 33 34 34 34 34 35 36 35 35 33 22 6 301 236 225 221 215 214 214 215 221 224
27 28 30 31 32 33 34 34 34 34 34 35 35 35 34 34 34 34 35 35 36 37 37 37 37 37 38 38 38 39 40 39 42 55 83 165 191 194 195 201 209 213 217
22 24 26 27 29 30 32 33 33 33 33 34 35 35 34 34 35 35 36 37 38 38 38 39 39 40 41 42 42 42 45 49 56 65 73 96 151 167 178 185 198 213 218
16 19 22 23 25 27 28 30 31 32 32 33 33 34 34 35 35 35 36 37 38 38 39 40 41 41 42 42 42 44 48 54 59 65 71 82 100 123 136 150 167 184 194
3 9 13 17 19 21 23 24 26 27 29 31 31 32 33 34 34 35 35 36 37 38 39 40 42 43 43 43 43 46 48 50 55 62 68 76 84 94 106 115 125 136 152
Height
5860 5858 5855 5852 5850 5847 5846 5845 5845 5844 5844 5845 5845 5846 5847 5848 5850 5852 5854 5856 5858 5860 5861 5863 5864 5866 5867 5869 5870 5872 5873 5874 5876 5877 5878 5879 5881 5882 5883 5884 5885 5886 5887
5852 5849 5846 5843 5840 5837 5835 5834 5833 5833 5833 5834 5835 5836 5837 5839 5840 5842 5844 5847 5849 5851 5853 5855 5857 5858 5860 5861 5863 5865 5866 5868 5870 5871 5872 5873 5876 5876 5877 5879 5880 5881 5882
5844 5841 5837 5833 5830 5828 5826 5824 5823 5822 5822 5823 5824 5825 5827 5828 5830 5832 5835 5837 5839 5842 5844 5846 5849 5851 5852 5854 5855 5857 5859 5861 5863 5864 5866 5867 5869 5870 5871 5873 5874 5875 5876
5837 5833 5830 5826 5823 5820 5817 5815 5813 5813 5812 5813 5813 5815 5816 5818 5820 5822 5824 5827 5830 5832 5835 5837 5840 5842 5844 5846 5848 5849 5851 5853 5855 5857 5859 5861 5862 5863 5865 5867 5868 5869 5870
5831 5827 5823 5819 5816 5812 5809 5806 5805 5804 5803 5803 5803 5804 5806 5808 5810 5812 5815 5817 5820 5823 5825 5828 5830 5833 5835 5837 5839 5842 5844 5846 5847 5849 5851 5853 5855 5856 5858 5860 5861 5862 5863
5827 5823 5818 5814 5810 5806 5802 5800 5798 5797 5795 5795 5795 5796 5798 5799 5801 5803 5805 5808 5810 5813 5816 5818 5821 5824 5826 5828 5830 5833 5835 5837 5839 5841 5843 5845 5847 5849 5850 5852 5853 5855 5856
5823 5819 5814 5810 5806 5802 5798 5795 5793 5791 5790 5789 5789 5789 5790 5792 5794 5795 5797 5799 5801 5804 5806 5809 5812 5815 5817 5819 5822 5824 5827 5828 5830 5833 5835 5837 5839 5841 5842 5844 5846 5847 5848
5821 5816 5812 5808 5804 5800 5796 5792 5789 5788 5786 5785 5784 5784 5785 5786 5787 5788 5790 5791 5794 5796 5798 5801 5803 5806 5808 5811 5813 5816 5818 5820 5822 5825 5827 5829 5831 5832 5834 5836 5838 5839 5840
5820 5815 5811 5807 5803 5799 5795 5791 5788 5786 5784 5783 5781 5781 5781 5781 5782 5783 5784 5785 5786 5788 5790 5793 5795 5797 5799 5802 5804 5807 5809 5812 5814 5816 5818 5820 5822 5824 5826 5828 5830 5831 5832
5820 5815 5811 5806 5802 5798 5795 5791 5788 5786 5784 5781 5780 5779 5778 5778 5778 5778 5779 5779 5780 5782 5783 5785 5787 5789 5791 5794 5797 5799 5801 5804 5806 5808 5810 5812 5814 5815 5817 5819 5821 5823 5825
5821 5816 5812 5807 5803 5799 5796 5793 5789 5787 5784 5781 5779 5778 5777 5776 5776 5775 5775 5776 5776 5777 5778 5780 5782 5783 5785 5787 5790 5792 5794 5796 5798 5800 5802 5804 5806 5807 5809 5811 5813 5815 5816
5823 5818 5814 5809 5804 5801 5798 5795 5791 5788 5786 5783 5780 5778 5777 5776 5775 5774 5774 5774 5773 5774 5775 5776 5777 5779 5780 5782 5783 5785 5787 5789 5791 5793 5794 5796 5798 5800 5801 5803 5805 5807 5808
5825 5821 5816 5812 5808 5804 5801 5797 5794 5791 5788 5785 5782 5780 5778 5776 5775 5774 5773 5773 5772 5772 5772 5773 5774 5775 5776 5777 5778 5779 5781 5782 5784 5785 5787 5788 5790 5792 5794 5796 5798 5799 5801
5828 5824 5820 5815 5811 5808 5804 5800 5797 5794 5791 5788 5785 5783 5780 5778 5776 5775 5774 5773 5772 5771 5771 5771 5771 5772 5772 5773 5773 5774 5775 5777 5778 5779 5780 5782 5783 5785 5787 5789 5790 5792 5793
5831 5827 5823 5819 5815 5811 5808 5804 5800 5797 5794 5791 5788 5785 5783 5780 5778 5776 5775 5773 5772 5771 5770 5770 5769 5768 5768 5768 5769 5770 5770 5771 5772 5773 5774 5775 5777 5779 5780 5782 5784 5785 5787
5835 5831 5827 5823 5819 5815 5812 5808 5804 5801 5798 5794 5791 5788 5786 5783 5780 5778 5776 5775 5773 5771 5769 5768 5767 5766 5765 5765 5765 5766 5766 5766 5767 5768 5769 5770 5772 5773 5775 5776 5778 5779 5781
5839 5835 5831 5827 5823 5819 5816 5812 5808 5805 5801 5798 5795 5792 5788 5785 5783 5780 5778 5775 5773 5771 5769 5767 5766 5764 5763 5763 5762 5762 5763 5763 5763 5764 5765 5766 5767 5768 5770 5771 5773 5774 5776
5842 5839 5835 5831 5827 5824 5820 5816 5812 5809 5805 5801 5798 5794 5791 5788 5785 5782 5780 5777 5774 5771 5769 5767 5765 5763 5762 5761 5761 5760 5760 5760 5761 5761 5762 5763 5764 5765 5766 5768 5769 5770 5772
5846 5842 5839 5835 5831 5827 5824 5820 5816 5812 5809 5805 5801 5798 5794 5791 5788 5785 5782 5778 5775 5773 5770 5767 5765 5763 5761 5760 5759 5759 5758 5758 5759 5759 5760 5760 5761 5762 5763 5765 5766 5767 5769
5849 5845 5842 5838 5835 5831 5827 5824 5820 5816 5812 5808 5805 5801 5797 5794 5790 5787 5784 5780 5777 5774 5771 5769 5766 5763 5761 5760 5759 5758 5758 5757 5757 5757 5757 5758 5759 5760 5761 5762 5763 5764 5766
5851 5848 5845 5842 5838 5834 5831 5827 5823 5820 5816 5812 5808 5804 5801 5797 5793 5790 5786 5783 5779 5776 5773 5770 5767 5765 5763 5761 5759 5758 5757 5757 5756 5756 5756 5756 5757 5758 5759 5760 5761 5762 5764
5854 5850 5847 5844 5841 5837 5834 5831 5827 5823 5819 5815 5812 5808 5804 5800 5796 5793 5789 5786 5782 5779 5776 5773 5770 5767 5765 5763 5761 5759 5758 5757 5756 5756 5756 5756 5756 5756 5757 5758 5759 5760 5762
5856 5853 5850 5847 5843 5840 5837 5833 5830 5826 5823 5819 5815 5811 5807 5804 5800 5796 5792 5789 5786 5782 5779 5776 5773 5770 5767 5765 5763 5761 5759 5758 5757 5756 5756 5756 5756 5756 5757 5758 5758 5759 5760
5857 5854 5851 5849 5845 5842 5839 5836 5833 5829 5825 5822 5818 5814 5811 5807 5803 5800 5796 5792 5789 5786 5782 5779 5776 5773 5771 5768 5765 5763 5761 5759 5758 5757 5756 5756 5756 5756 5756 5757 5758 5758 5759
5858 5855 5853 5850 5847 5844 5841 5838 5835 5832 5828 5825 5821 5818 5814 5810 5807 5803 5799 5796 5793 5789 5786 5783 5780 5777 5774 5771 5768 5766 5764 5762 5760 5759 5758 5757 5757 5757 5757 5757 5758 5758 5758
5858 5856 5854 5851 5848 5846 5843 5840 5837 5834 5831 5827 5824 5821 5817 5814 5810 5806 5803 5800 5796 5793 5790 5787 5783 5780 5777 5774 5772 5769 5767 5765 5763 5762 5760 5759 5759 5758 5758 5758 5758 5759 5759